Regional Weather Roundup
Issued by NWS

Home | Current Version | Previous Version | Text Only | Print | Product List | Glossary On
Versions: 1 2 3 4 5 6 7 8 9 10 11 12 13 14 15 16 17 18 19 20 21 22 23 24 25 26 27 28 29 30 31 32 33 34 35 36 37 38 39 40 41 42 43 44 45 46 47 48 49 50
000
ASUS43 KLOT 190012
RWRIL

ILLINOIS REGIONAL WEATHER ROUNDUP
NATIONAL WEATHER SERVICE CHICAGO/ROMEOVILLE IL
600 PM CST WED JAN 18 2017

NOTE: "FAIR" INDICATES FEW OR NO CLOUDS BELOW 12,000 FEET WITH NO
SIGNIFICANT WEATHER AND/OR OBSTRUCTIONS TO VISIBILITY.

* THESE STATIONS ARE NOT UNDER NWS QUALITY CONTROL. THEY ALSO MAY NOT
  REPORT WEATHER SUCH AS PRECIPITATION OR FOG.

ILZ001-002-007-009-015-016-024-190100-
NORTHWEST ILLINOIS

CITY           SKY/WX    TMP DP  RH WIND       PRES   REMARKS
MOLINE         CLEAR     38  33  82 CALM      30.05R
6HR MIN TEMP:  35; 6HR MAX TEMP:  42;

STERLING*      CLOUDY    36  33  89 SE5       30.08S WCI  32
SAVANNA*       CLOUDY    31  30  96 SE3       30.07S FOG
$$

ILZ003-004-008-010-011-017-018-190100-
NORTH CENTRAL ILLINOIS

CITY           SKY/WX    TMP DP  RH WIND       PRES   REMARKS
ROCKFORD       CLOUDY    35  31  85 S9        30.08R WCI  28
6HR MIN TEMP:  34; 6HR MAX TEMP:  37;

FREEPORT*      CLOUDY    33  32  96 S8        30.07S FOG     WCI  26
ROCHELLE*      CLOUDY    33  32  94 SW9       30.08F WCI  26
DE KALB*       CLOUDY    35  32  91 S8        30.08S WCI  28
$$

ILZ005-006-012>014-019>023-190100-
NORTHEAST ILLINOIS

CITY           SKY/WX    TMP DP  RH WIND       PRES   REMARKS
CHICAGO-OHARE  CLOUDY    35  31  85 SW8       30.08R WCI  29
6HR MIN TEMP:  34; 6HR MAX TEMP:  36;

CHICAGO-MIDWAY CLOUDY    35  31  85 SW10      30.10R WCI  27
6HR MIN TEMP:  33; 6HR MAX TEMP:  36;

AURORA         CLOUDY    37  32  82 SE3       30.08R
6HR MIN TEMP:  35; 6HR MAX TEMP:  37;

LANSING*       CLOUDY    36  35  95 SW8       30.11R WCI  30
JOLIET*        CLOUDY    37  34  87 SW6       30.10F WCI  33
WAUKEGAN       CLOUDY    34  30  85 SW14      30.05R WCI  25
6HR MIN TEMP:  33; 6HR MAX TEMP:  36;

DUPAGE AIRPORT CLOUDY    36  31  82 SW10      30.07R WCI  28
6HR MIN TEMP:  34; 6HR MAX TEMP:  36;

KANKAKEE*      CLOUDY    38  34  87 SW10      30.12R WCI  30
WHEELING       CLOUDY    35  30  82 SW8       30.09R WCI  29
6HR MIN TEMP:  34; 6HR MAX TEMP:  36;

MORRIS*        CLOUDY    36  33  90 S5        30.10R WCI  32
ROMEOVILLE*    CLOUDY    36  35  97 SW8       30.09S WCI  29
NORTHERLY ISL    N/A     36  31  82 S3          N/A
$$

LMZ740>746-190100-
SOUTHERN LAKE MICHIGAN

STATION/POSITION SKY/WX   TEMP    WIND        PRES    VSBY  WAVE
                          AIR SEA DIR/SP/G                  HT/PER
                          (F)     (DEG/KT/KT) (MB)    (MI)  (FT/S)
HARRISON CRIB              38     220/ 10/ 11   N/A
BURNHAM HARBOR             36     210/  6/ 11   N/A
CALUMET HARBOR             36     210/  8/ 15 1018.6R
BURNS HARBOR               37     230/  9/ 14 1020.0R
$$

ILZ025>027-034>036-040-047-049-050-058-095>099-190100-
WEST-CENTRAL ILLINOIS

CITY           SKY/WX    TMP DP  RH WIND       PRES   REMARKS
QUINCY         CLEAR     38  34  85 SE3       30.05F
GALESBURG*     CLOUDY    34  33  96 CALM      30.06S FOG
MACOMB*        CLEAR     37  34  88 S3        30.08S
JACKSONVILLE*  CLEAR     39  33  79 S6        30.08S WCI  35
PITTSFIELD*    CLOUDY    39  35  84 S3        30.08S
$$

ILZ028>032-037-038-041>044-048-051>054-059>061-190100-
CENTRAL ILLINOIS

CITY           SKY/WX    TMP DP  RH WIND       PRES   REMARKS
PONTIAC        CLOUDY    37  37  99 SW5       30.12R WCI  33
BLOOMINGTON    CLOUDY    34  33  96 S5        30.10R WCI  30
DECATUR        CLOUDY    38  35  89 S3        30.09F
PEORIA         CLEAR     36  33  89 CALM      30.09S
6HR MIN TEMP:  36; 6HR MAX TEMP:  40;

LACON*         CLOUDY    33  32  96 CALM      30.09R
LINCOLN*       CLOUDY    38  36  92 CALM      30.09F
SPRINGFIELD    CLOUDY    41  35  79 S5        30.08F
6HR MIN TEMP:  40; 6HR MAX TEMP:  46;

TAYLORVILLE    CLOUDY    37  35  91 S6        30.10S WCI  33
6HR MIN TEMP:  37; 6HR MAX TEMP:  44;

$$

ILZ033-039-045-046-055>057-062-063-190100-
EAST-CENTRAL ILLINOIS

CITY           SKY/WX    TMP DP  RH WIND       PRES   REMARKS
CHAMPAIGN      CLOUDY    36  33  89 S6        30.11S WCI  31
RANTOUL*       CLOUDY    39  37  89 S5        30.12R
MATTOON        CLOUDY    36  34  92 S6        30.09F WCI  31
PARIS*         CLOUDY    37  35  92 S10       30.14S WCI  30
$$

ILZ079-100>102-190100-
SOUTHWEST ILLINOIS

CITY           SKY/WX    TMP DP  RH WIND       PRES   REMARKS
ALTON          MOCLDY    39  36  87 S8        30.11R WCI  34
BELLEVILLE     CLOUDY    41  38  89 S5        30.10R
CAHOKIA*       MOCLDY    43  35  73 SE6       30.11R
SPARTA*        MOCLDY    42  36  79 CALM      30.12F
$$

ILZ064>066-069>071-074>076-080>082-084>086-088>090-092>094-190100-
SOUTH-CENTRAL ILLINOIS

CITY           SKY/WX    TMP DP  RH WIND       PRES   REMARKS
CARBONDALE     CLOUDY    43  39  86 SE5       30.11F
6HR MIN TEMP:  42; 6HR MAX TEMP:  46;

CAIRO*         CLOUDY    43  40  90 CALM      30.13R
EFFINGHAM*     CLOUDY    39  37  94 E6        30.13S WCI  34
MARION         MOCLDY    45  39  81 S6        30.14R
MT. VERNON     CLOUDY    42  37  82 SE3       30.13R
CENTRALIA*     MOCLDY    42  38  84 S3        30.12R
SALEM*         CLOUDY    44  36  73 S3        30.12R
METROPOLIS*    CLOUDY    43  39  85 CALM      30.12S
$$

ILZ067-068-072-073-078-083-087-091-190100-
SOUTHEAST ILLINOIS

CITY           SKY/WX    TMP DP  RH WIND       PRES   REMARKS
LAWRENCEVILLE  CLOUDY    40  37  89 S5        30.15F
FLORA*         CLOUDY    40  37  88 SE5       30.13S
FAIRFIELD*     MOCLDY    40  37  87 CALM      30.13S
HARRISBURG*    MOCLDY    43  39  86 S5        30.14S
ROBINSON*      CLOUDY    38  35  87 CALM      30.14F
CARMI*         MOCLDY    41  38  91 E5        30.12F
$$

ABBREVIATIONS USED IN REMARKS
   TC - TEMPERATURE IN CELSIUS
  WCI - WIND CHILL INDEX
   HX - HEAT INDEX
  VSB - VISIBILITY
$$





USA.gov is the U.S. government's official web portal to all federal, state and local government web resources and services.